Wind_Speed
17 14 13 12 15 22 19 16 15 16 18 17 18 19 19 18 19 18 15 14 17 19 18 20 21 21 21 19 17 15 14 13 12 16 12 17 20 23 24 23 23 26 27 26 26 25 24 23 20
11 17 16 14 19 21 19 15 14 15 16 15 15 16 15 16 19 18 20 16 16 17 17 18 18 20 20 18 15 13 14 15 18 16 10 21 19 22 24 24 26 26 27 25 24 23 20 17 14
7 11 14 15 20 21 20 17 13 14 15 14 15 13 14 14 18 19 18 19 18 16 16 18 18 18 18 18 16 16 18 17 15 13 14 19 25 28 26 24 26 26 25 23 21 19 18 14 12
10 11 14 16 19 19 21 19 14 14 16 15 16 14 14 16 15 19 19 18 19 17 16 16 16 18 17 17 14 16 23 24 18 21 26 33 28 26 23 24 26 25 23 21 20 16 14 14 15
14 11 13 17 16 18 22 20 15 13 14 15 15 17 16 17 17 19 21 21 21 20 18 17 17 19 17 15 16 19 28 28 26 27 28 32 27 26 25 26 25 23 22 19 16 13 15 15 15
9 10 11 15 15 15 21 20 18 15 14 16 16 15 16 17 16 18 19 23 22 22 21 20 20 19 18 17 22 27 26 28 26 25 24 24 24 26 28 27 24 23 19 16 14 16 17 17 18
12 12 10 11 14 13 19 17 17 17 16 14 16 13 16 17 15 15 18 20 22 19 17 17 17 19 19 19 24 27 26 24 24 23 23 23 26 28 28 25 23 19 16 15 16 17 19 21 22
16 6 6 12 13 13 17 15 15 17 17 16 14 13 13 16 16 14 15 16 17 16 14 14 16 17 20 20 20 19 21 22 23 23 23 26 28 29 26 23 20 17 16 16 18 20 22 22 24
8 10 13 12 11 13 17 13 14 15 15 17 15 15 12 13 16 15 15 15 14 14 13 13 14 17 19 21 20 19 19 20 21 23 24 28 27 26 23 20 17 17 16 18 21 22 23 24 24
12 11 10 12 11 13 15 14 12 14 14 18 16 14 13 12 11 12 13 15 15 15 14 13 13 15 19 21 22 21 21 23 23 23 25 27 25 23 20 18 16 17 18 22 23 22 23 21 20
13 7 9 10 12 11 10 14 14 11 13 15 19 16 14 12 10 10 11 11 13 15 15 15 14 15 19 19 22 22 22 23 24 24 25 27 24 21 19 17 17 19 21 23 22 23 20 19 17
16 10 9 10 10 9 7 11 12 12 10 12 17 17 16 15 12 9 9 11 12 14 16 15 14 15 19 20 21 22 22 24 23 24 27 27 23 20 18 17 18 18 21 22 22 22 18 18 17
7 13 12 8 8 8 7 8 8 9 8 10 13 16 16 16 13 9 8 9 10 14 16 16 14 15 17 21 19 20 21 23 23 24 27 25 22 20 18 18 19 18 20 21 22 20 19 17 16
9 10 11 7 6 5 2 4 7 4 7 8 12 13 14 15 14 12 12 11 12 13 15 16 16 15 17 19 19 19 20 24 25 26 26 23 21 19 18 18 19 18 20 22 22 19 18 17 14
10 10 6 12 8 5 5 9 7 2 5 7 12 13 12 14 15 14 11 10 11 13 14 17 16 17 17 17 19 18 21 26 28 28 25 22 19 19 18 19 18 20 21 23 23 21 20 17 14
13 9 12 12 18 8 9 9 8 5 4 7 10 12 12 12 13 13 11 12 12 14 16 17 18 19 17 18 19 18 22 28 30 28 24 21 18 17 18 20 18 21 20 21 20 19 18 15 14
8 10 9 8 17 16 10 7 8 5 6 10 7 10 11 10 13 13 11 9 11 13 16 18 19 15 20 19 18 20 27 28 29 26 24 20 16 15 15 20 20 21 21 20 19 17 16 13 12
11 13 16 13 16 15 9 9 6 5 5 8 10 10 11 10 10 14 12 10 8 12 15 17 18 21 19 19 20 24 27 28 26 25 22 19 16 13 15 19 20 21 21 20 18 17 15 13 10
16 14 17 15 17 17 10 8 9 7 5 6 6 8 11 12 10 10 13 11 9 10 14 17 20 22 23 20 23 28 28 27 26 22 19 17 14 12 11 16 20 20 20 20 19 17 15 13 9
17 17 22 20 22 19 16 14 11 11 13 10 8 8 8 12 14 13 13 13 10 8 11 16 18 18 20 21 23 27 29 29 25 21 18 16 13 11 10 10 18 19 20 19 19 18 16 14 11
17 19 19 23 23 24 22 19 14 14 9 12 12 11 11 12 14 15 14 15 13 10 12 14 16 18 19 21 22 23 24 26 25 22 18 15 13 10 9 8 10 18 19 19 19 19 17 15 13
21 20 20 20 24 23 27 24 23 21 16 14 15 16 15 13 13 14 16 13 15 15 13 13 15 17 19 20 21 26 26 26 26 24 20 16 14 12 10 9 8 8 17 20 19 19 19 17 15
24 25 23 23 25 28 24 25 21 22 15 15 16 17 20 20 19 18 17 20 21 18 18 17 16 18 18 20 23 27 27 25 25 22 21 18 15 14 12 11 10 11 11 15 22 23 22 20 19
25 26 26 28 27 30 26 27 21 17 14 18 20 23 24 25 24 24 23 23 23 23 23 22 21 19 21 22 23 26 27 26 24 23 22 20 18 16 15 14 15 16 16 17 18 24 25 24 24
25 24 28 31 32 29 31 30 25 23 24 19 22 28 27 26 26 27 26 25 22 19 23 24 24 24 23 23 25 25 25 24 25 25 23 21 20 19 18 18 18 19 19 21 21 22 25 26 25
29 28 27 29 31 32 34 32 30 31 33 30 26 31 31 29 28 28 28 28 26 24 22 25 26 26 26 27 26 27 26 25 26 25 24 23 21 21 19 18 18 20 20 21 24 25 25 26 29
28 29 29 29 31 32 35 35 34 33 35 36 31 34 36 37 34 29 33 32 29 29 27 25 28 29 29 30 31 30 29 28 29 28 27 24 23 23 22 21 21 21 20 20 23 27 29 28 28
32 30 30 28 28 29 30 31 37 38 37 38 40 39 38 40 33 32 31 33 31 30 32 33 31 31 32 32 32 32 33 32 32 32 29 26 25 23 23 24 23 21 21 20 21 25 27 28 28
33 32 32 31 31 31 30 27 28 31 38 41 40 45 45 42 38 37 34 35 35 36 35 36 35 33 33 34 34 33 32 33 35 33 32 30 29 26 25 25 26 24 22 22 22 24 25 26 28
36 37 36 36 35 34 34 29 28 27 30 33 44 45 49 48 46 41 36 38 39 38 39 35 33 33 33 34 37 36 35 34 34 33 33 34 32 31 29 29 28 28 25 24 26 26 26 26 28
Wind_Direction
61 65 46 34 57 67 67 63 66 72 81 81 83 90 95 100 104 108 114 124 126 127 131 126 127 124 121 120 114 110 117 120 130 132 121 127 138 138 120 117 109 101 103 101 100 99 94 89 85
68 55 48 49 64 69 77 75 69 74 78 84 80 82 90 97 102 108 113 115 132 134 130 125 121 121 118 114 108 111 129 134 128 156 131 138 136 117 112 110 106 101 101 101 101 94 90 84 80
76 58 47 54 63 68 74 80 79 79 80 81 79 78 85 93 105 108 114 119 128 133 130 124 118 116 111 105 102 108 126 132 134 148 148 151 132 117 109 104 106 108 106 101 96 90 86 85 79
101 64 53 65 64 65 67 76 84 85 86 82 89 86 93 96 104 116 124 126 132 135 131 120 119 114 108 103 96 123 127 125 127 102 133 117 116 119 114 116 115 110 105 103 96 92 88 80 77
79 83 61 65 68 69 73 68 74 91 94 96 90 90 88 98 104 110 121 128 134 136 130 125 121 120 108 102 104 126 124 115 115 108 112 108 114 121 122 120 114 111 104 101 101 95 84 81 85
93 95 85 68 62 67 76 76 83 90 91 93 90 91 93 95 101 112 117 119 122 130 131 125 118 114 111 102 120 126 128 121 118 111 106 108 115 122 124 120 115 108 106 103 97 90 88 92 93
117 92 102 74 61 64 75 80 83 86 93 97 101 101 105 102 105 114 117 121 124 126 124 122 120 119 115 117 119 127 124 123 120 117 115 119 122 123 121 118 112 111 108 99 96 99 101 95 92
150 133 75 78 68 68 76 83 81 80 85 97 101 112 110 115 115 121 124 122 123 126 128 124 123 123 121 125 133 130 127 122 120 123 119 123 125 123 121 118 116 110 101 107 105 103 98 98 100
143 136 111 95 84 78 84 84 86 80 81 84 98 111 118 117 122 128 133 135 138 137 136 134 128 125 128 127 128 130 127 124 127 127 123 127 126 124 124 119 116 112 113 106 105 104 103 103 102
147 130 108 103 93 79 77 92 83 83 69 79 82 109 117 121 123 133 138 143 145 147 149 145 137 133 135 134 132 131 131 131 131 129 128 135 132 129 127 122 118 113 112 109 108 106 102 104 105
167 156 119 104 93 76 71 84 86 76 75 74 86 96 111 112 117 136 145 153 154 153 155 153 147 141 140 137 134 130 126 128 130 133 135 142 136 133 130 126 121 117 114 109 106 102 105 109 104
164 173 133 105 105 81 80 71 84 88 83 79 85 91 102 105 106 115 131 152 158 158 154 152 152 148 144 141 140 136 132 133 137 139 142 144 142 136 133 127 122 117 113 113 108 105 110 110 100
133 146 144 129 92 70 57 57 69 95 106 103 91 90 96 96 101 110 131 149 149 158 152 149 148 147 147 147 141 136 134 138 143 144 147 148 144 136 131 128 123 118 117 112 110 114 114 104 97
165 188 184 170 133 153 161 76 80 100 118 126 111 97 95 94 90 106 115 135 151 159 159 156 150 147 150 151 144 138 142 145 144 147 150 149 142 133 128 129 125 121 118 112 112 112 106 101 95
156 189 172 192 184 182 153 123 103 117 156 159 132 118 108 108 101 109 112 118 145 143 157 164 152 148 149 148 150 151 151 154 149 150 148 146 141 135 131 131 131 127 118 115 117 104 98 100 85
161 172 174 178 194 196 154 139 132 116 146 162 148 132 125 122 119 115 114 108 128 145 150 152 154 147 149 147 151 156 159 158 153 150 146 145 144 141 137 137 137 136 134 124 124 114 101 103 86
197 205 196 190 187 204 179 185 153 139 132 159 163 147 139 142 137 129 120 112 109 131 155 150 154 152 149 150 152 153 159 158 152 148 147 145 143 141 142 146 144 148 145 134 128 122 112 108 103
231 231 218 195 198 192 187 196 217 187 148 161 159 168 160 157 161 147 140 133 121 114 130 158 162 155 155 153 152 155 158 155 154 152 148 146 141 137 147 153 153 156 155 146 138 136 127 124 118
245 217 196 194 208 232 208 209 238 247 219 199 184 177 180 172 169 166 151 150 147 132 133 149 157 156 157 158 158 160 162 160 159 156 147 146 142 136 139 160 163 166 162 156 153 151 144 137 132
245 242 204 196 203 229 226 244 273 259 288 232 205 205 184 187 182 183 172 161 161 163 147 156 170 168 166 162 163 166 166 166 164 160 156 155 157 152 144 155 172 172 175 170 167 164 164 161 163
239 246 239 216 221 227 243 248 258 255 275 263 247 227 217 202 193 189 196 188 173 178 183 168 168 177 178 172 168 174 177 173 170 171 171 170 170 173 167 164 174 186 183 189 182 180 181 182 186
249 245 248 246 247 242 233 245 253 253 252 278 273 243 233 228 214 201 199 208 202 197 193 191 177 177 183 187 184 183 187 189 184 184 186 188 188 191 189 189 194 194 201 200 204 199 196 197 205
251 255 251 245 243 253 252 251 236 251 254 248 254 237 229 224 220 215 207 208 218 213 204 202 196 185 186 190 189 190 193 200 203 201 198 203 211 213 212 213 225 233 228 220 211 213 216 213 218
254 250 253 253 248 247 248 250 234 235 225 225 242 240 235 228 222 223 218 222 216 216 216 211 206 202 195 193 193 196 201 204 208 211 210 212 217 221 229 235 239 241 239 235 227 225 221 223 228
258 255 254 253 254 257 253 247 242 218 221 228 231 228 232 232 229 226 229 226 223 217 224 218 217 212 209 205 202 204 208 208 209 211 213 213 218 226 237 246 250 250 248 246 240 234 233 233 234
259 259 255 259 258 257 257 254 247 240 223 235 228 222 231 234 233 228 224 227 224 217 215 223 222 222 219 214 210 209 210 208 208 211 213 216 224 232 236 246 255 258 255 247 243 238 237 236 240
256 258 260 260 262 258 257 258 251 246 238 231 232 227 231 236 242 241 233 226 223 217 213 214 221 224 224 222 218 215 214 213 215 217 219 222 231 240 239 240 248 254 254 251 248 242 238 236 240
255 256 261 261 259 260 260 258 257 253 242 235 232 231 230 230 232 239 245 238 232 224 218 215 214 220 226 225 225 222 220 217 218 223 226 229 236 238 243 247 249 253 252 252 251 249 246 246 247
262 257 256 260 261 264 263 260 260 256 252 243 231 231 233 230 224 233 243 243 234 227 224 224 218 217 225 230 230 230 228 223 224 226 228 232 239 242 244 247 254 255 259 258 254 251 252 254 252
263 265 263 262 261 260 262 257 266 263 258 251 237 228 231 235 227 228 232 233 237 231 231 231 230 227 221 227 233 234 232 230 229 231 232 235 240 244 243 244 250 258 257 259 258 255 254 254 257
Height
5897 5895 5894 5893 5896 5889 5889 5889 5889 5888 5887 5887 5886 5886 5886 5886 5886 5890 5890 5891 5892 5894 5897 5898 5899 5900 5902 5903 5904 5905 5907 5908 5909 5910 5911 5912 5913 5914 5917 5919 5920 5921 5922 5924 5924 5925 5926 5926 5928
5898 5898 5897 5896 5895 5892 5892 5891 5890 5890 5890 5889 5889 5889 5889 5890 5890 5891 5892 5893 5895 5896 5898 5900 5902 5903 5904 5906 5907 5908 5909 5910 5912 5912 5913 5913 5914 5916 5919 5922 5923 5924 5926 5928 5928 5928 5929 5930 5930
5901 5900 5901 5898 5896 5895 5894 5893 5893 5892 5892 5891 5891 5892 5893 5894 5893 5894 5896 5896 5897 5899 5900 5902 5905 5906 5906 5907 5908 5908 5910 5911 5912 5913 5913 5915 5918 5920 5923 5925 5926 5928 5929 5930 5931 5932 5932 5932 5932
5903 5904 5904 5901 5899 5898 5897 5895 5896 5894 5894 5894 5894 5895 5895 5895 5898 5896 5897 5899 5900 5901 5903 5905 5907 5908 5908 5909 5909 5910 5912 5913 5914 5913 5916 5917 5921 5924 5927 5928 5928 5930 5931 5933 5933 5934 5934 5934 5934
5905 5905 5907 5904 5901 5900 5899 5899 5899 5898 5897 5896 5897 5897 5898 5898 5899 5900 5900 5901 5901 5903 5905 5907 5909 5911 5911 5910 5911 5913 5915 5916 5918 5920 5920 5922 5925 5927 5928 5930 5932 5933 5934 5935 5936 5937 5936 5936 5937
5907 5907 5907 5907 5905 5903 5900 5901 5901 5900 5899 5898 5898 5899 5900 5900 5902 5903 5904 5904 5905 5907 5908 5910 5911 5914 5915 5915 5913 5917 5919 5920 5923 5924 5925 5926 5928 5929 5932 5934 5936 5936 5938 5939 5940 5939 5939 5940 5940
5908 5908 5909 5908 5907 5907 5905 5905 5904 5902 5902 5902 5900 5902 5903 5902 5904 5906 5906 5907 5908 5910 5911 5912 5914 5915 5917 5919 5919 5920 5922 5925 5927 5929 5930 5932 5933 5934 5936 5937 5938 5940 5941 5942 5942 5942 5943 5943 5943
5908 5910 5910 5910 5911 5910 5908 5908 5907 5905 5904 5902 5903 5903 5905 5904 5905 5908 5909 5910 5912 5913 5915 5915 5916 5918 5919 5920 5922 5923 5926 5928 5929 5932 5933 5934 5937 5938 5939 5941 5942 5944 5944 5945 5946 5946 5946 5946 5946
5910 5912 5911 5912 5912 5912 5910 5912 5911 5909 5908 5905 5904 5903 5906 5907 5907 5909 5911 5912 5914 5915 5917 5917 5918 5919 5921 5923 5925 5926 5928 5930 5933 5935 5935 5937 5938 5940 5943 5945 5947 5947 5948 5949 5949 5950 5950 5950 5950
5912 5913 5913 5914 5916 5914 5915 5914 5914 5912 5911 5907 5906 5905 5907 5908 5909 5911 5912 5914 5915 5917 5918 5919 5920 5921 5923 5925 5926 5929 5931 5933 5935 5937 5937 5939 5940 5943 5946 5948 5950 5951 5952 5951 5952 5953 5953 5954 5955
5916 5916 5916 5917 5918 5918 5917 5916 5915 5915 5913 5912 5909 5909 5909 5909 5911 5912 5914 5916 5917 5918 5920 5921 5922 5923 5925 5927 5928 5930 5933 5935 5936 5938 5940 5942 5944 5947 5949 5951 5952 5953 5954 5954 5956 5956 5957 5959 5959
5916 5917 5918 5918 5918 5919 5919 5919 5918 5917 5917 5916 5913 5912 5911 5910 5912 5914 5914 5916 5918 5919 5921 5923 5924 5925 5926 5929 5931 5933 5934 5936 5938 5940 5942 5945 5948 5950 5952 5953 5954 5956 5956 5958 5959 5959 5961 5962 5963
5918 5918 5918 5917 5918 5919 5920 5919 5919 5918 5918 5917 5917 5915 5914 5913 5913 5914 5916 5918 5919 5920 5921 5923 5925 5927 5928 5930 5933 5935 5936 5937 5939 5942 5945 5948 5951 5952 5954 5955 5957 5958 5959 5961 5961 5962 5964 5965 5965
5918 5918 5918 5920 5919 5919 5919 5918 5918 5920 5919 5920 5919 5918 5917 5917 5916 5916 5917 5919 5920 5921 5922 5924 5925 5927 5930 5931 5934 5936 5938 5939 5940 5944 5947 5950 5952 5954 5956 5957 5959 5961 5963 5963 5964 5966 5967 5967 5968
5916 5918 5919 5919 5919 5918 5919 5918 5918 5920 5920 5921 5919 5919 5919 5918 5919 5919 5920 5920 5921 5921 5923 5925 5926 5927 5931 5933 5935 5937 5939 5941 5942 5945 5949 5952 5954 5955 5957 5959 5961 5963 5966 5966 5966 5968 5968 5969 5971
5916 5917 5919 5919 5918 5918 5919 5919 5919 5919 5920 5922 5922 5921 5920 5920 5921 5922 5922 5923 5923 5924 5924 5926 5927 5929 5931 5934 5936 5938 5939 5941 5944 5947 5950 5953 5955 5956 5957 5960 5963 5965 5967 5968 5968 5969 5970 5970 5972
5916 5917 5918 5919 5919 5919 5921 5921 5920 5920 5920 5921 5923 5923 5922 5923 5923 5923 5924 5926 5926 5926 5926 5926 5929 5931 5932 5935 5937 5939 5941 5943 5946 5949 5952 5954 5957 5958 5959 5961 5963 5966 5968 5969 5970 5970 5971 5972 5972
5914 5915 5916 5918 5920 5920 5922 5922 5922 5921 5922 5922 5921 5922 5924 5925 5925 5924 5925 5926 5928 5928 5927 5929 5930 5932 5934 5936 5938 5941 5944 5947 5949 5951 5954 5956 5958 5960 5961 5962 5964 5966 5968 5969 5969 5970 5970 5971 5973
5909 5912 5913 5917 5919 5920 5922 5924 5924 5923 5922 5923 5923 5923 5923 5924 5926 5926 5926 5927 5929 5929 5929 5930 5932 5932 5934 5937 5939 5942 5945 5948 5951 5953 5955 5957 5959 5961 5961 5962 5963 5965 5967 5968 5968 5969 5970 5972 5973
5906 5908 5911 5913 5915 5916 5918 5920 5923 5924 5924 5922 5923 5923 5924 5924 5924 5926 5926 5926 5929 5931 5931 5931 5933 5934 5935 5938 5940 5943 5945 5948 5951 5954 5956 5958 5959 5961 5962 5963 5963 5964 5966 5967 5967 5969 5970 5971 5972
5903 5904 5907 5910 5911 5912 5914 5917 5919 5920 5924 5924 5923 5923 5924 5923 5923 5924 5926 5927 5927 5929 5931 5932 5932 5934 5936 5938 5941 5944 5947 5949 5951 5953 5956 5957 5959 5961 5962 5964 5964 5964 5965 5967 5968 5968 5970 5970 5971
5899 5900 5902 5906 5906 5909 5912 5913 5915 5916 5920 5924 5923 5923 5923 5923 5922 5923 5924 5927 5927 5927 5930 5932 5932 5933 5935 5938 5940 5942 5945 5948 5949 5951 5954 5956 5958 5960 5962 5963 5965 5965 5965 5966 5968 5969 5970 5970 5970
5894 5895 5898 5900 5902 5902 5906 5908 5911 5912 5917 5918 5918 5920 5919 5919 5919 5919 5920 5921 5923 5925 5926 5929 5931 5932 5934 5936 5937 5940 5944 5947 5949 5951 5952 5954 5957 5959 5960 5962 5962 5964 5965 5966 5965 5966 5967 5967 5967
5887 5890 5892 5893 5896 5897 5901 5902 5907 5908 5911 5911 5912 5913 5914 5915 5914 5915 5916 5917 5918 5921 5923 5926 5929 5930 5932 5934 5936 5938 5941 5944 5947 5949 5951 5952 5954 5956 5957 5958 5959 5961 5962 5963 5963 5963 5963 5963 5964
5881 5884 5885 5886 5887 5892 5892 5896 5901 5903 5903 5904 5904 5906 5908 5909 5911 5911 5913 5915 5916 5918 5921 5923 5925 5928 5930 5931 5932 5935 5939 5941 5943 5945 5947 5949 5951 5952 5953 5954 5955 5956 5957 5958 5960 5960 5960 5960 5960
5875 5877 5878 5878 5881 5884 5883 5887 5893 5894 5896 5896 5898 5901 5902 5903 5903 5905 5908 5909 5910 5913 5916 5919 5922 5924 5926 5928 5929 5930 5934 5937 5939 5941 5943 5945 5947 5947 5949 5950 5951 5952 5953 5953 5954 5955 5955 5956 5957
5868 5869 5870 5871 5872 5873 5875 5878 5882 5885 5887 5891 5892 5894 5895 5898 5900 5903 5902 5903 5905 5907 5911 5914 5916 5919 5922 5923 5925 5926 5929 5932 5934 5937 5939 5941 5942 5943 5944 5945 5946 5947 5948 5948 5949 5950 5950 5951 5952
5860 5862 5862 5862 5864 5864 5867 5868 5869 5873 5878 5880 5883 5885 5887 5889 5893 5897 5898 5898 5901 5902 5904 5904 5909 5912 5915 5917 5920 5921 5923 5926 5928 5931 5934 5936 5937 5939 5940 5941 5941 5942 5943 5943 5944 5944 5946 5947 5948
5851 5852 5854 5854 5855 5855 5858 5861 5862 5863 5864 5869 5874 5876 5878 5882 5884 5889 5892 5893 5894 5894 5896 5899 5901 5905 5909 5913 5914 5916 5918 5920 5922 5925 5928 5929 5930 5932 5934 5935 5936 5937 5938 5939 5940 5940 5941 5943 5944
5840 5841 5843 5843 5846 5847 5847 5854 5852 5854 5854 5855 5858 5864 5868 5871 5873 5878 5884 5886 5888 5889 5891 5895 5898 5900 5903 5905 5908 5911 5911 5914 5916 5919 5921 5923 5925 5927 5928 5929 5931 5932 5933 5934 5935 5936 5937 5938 5939